George, South Africa

3:00 AM SAST on December 11, 2017 (GMT +0200)
George

Weather History for FAGG - November, 2012

Change the Weather History Date:

Thursday, November 15, 2012

  Actual Average Record
Temperature  
Mean Temperature 66 °F -  
Max Temperature 77 °F 70 °F 80 °F (2000)
Min Temperature 55 °F 55 °F 48 °F (1996)
Cooling Degree Days 1    
Growing Degree Days 16 (Base 50)    
Moisture  
Dew Point 59 °F    
Average Humidity 80    
Maximum Humidity 94    
Minimum Humidity 60    
Precipitation  
Precipitation 0.00 in - - ()
Sea Level Pressure  
Sea Level Pressure 29.89 in    
Wind  
Wind Speed 5 mph ()    
Max Wind Speed 14 mph    
Max Gust Speed -    
Visibility 7.0 miles    
Events Fog    
Averages and records for this station are not official NWS values.
T = Trace of Precipitation, MM = Missing Value Source: Averaged Metar Reports

Daily Weather History Graph

Daily Weather History Graph

Search for Another Location

Airport or City:

Trip Planner

Search our weather history database for the weather conditions in past years. The results will help you decide how hot, cold, wet, or windy it might be!

Date:

Astronomy

Nov. 15, 2012 Rise Set
Actual Time 5:18 AM SAST 7:12 PM SAST
Civil Twilight 4:50 AM SAST 7:39 PM SAST
Nautical Twilight 4:17 AM SAST 8:13 PM SAST
Astronomical Twilight 3:41 AM SAST 8:49 PM SAST
Moon 6:31 AM SAST (11/15) 9:06 PM SAST (11/15)
Length of Visible Light 14h 49m
Length of Day
13h 54m
Waxing Crescent, 3% of the Moon is Illuminated
Nov 15
Waxing Crescent
Nov 20
First Quarter
Nov 28
Full
Dec 6
Last Quarter
Dec 13
New

Hourly Weather History & Observations

Time (SAST) Temp. Dew Point Humidity Pressure Visibility Wind Dir Wind Speed Gust Speed Precip Events Conditions
12:00 AM 60.8 °F 59.0 °F 94% 29.98 in 0.6 mi NW 4.6 mph - N/A Fog Fog
1:00 AM 57.2 °F 55.4 °F 94% 29.95 in 0.3 mi West 5.8 mph - N/A Fog Fog
2:00 AM 58 °F 56 °F 90% 29.93 in 6 mi WNW 4.6 mph - -  
2:00 AM 57.2 °F 55.4 °F 94% 29.92 in - NW 3.5 mph - N/A   Clear
3:00 AM 57.2 °F 55.4 °F 94% 29.89 in - NNW 3.5 mph - N/A   Clear
4:00 AM 57.2 °F 51.8 °F 82% 29.89 in - NW 3.5 mph - N/A   Clear
5:00 AM 57 °F 52 °F 79% 29.88 in 19 mi NW 3.5 mph - -   Clear
5:00 AM 57.2 °F 51.8 °F 82% 29.86 in - Variable 1.2 mph - N/A   Clear
6:00 AM 57.2 °F 51.8 °F 82% 29.86 in - North 4.6 mph - N/A   Clear
7:00 AM 66.2 °F 59.0 °F 78% 29.83 in - Variable 2.3 mph - N/A   Clear
8:00 AM 71 °F 60 °F 60% 29.83 in 12 mi Calm Calm - -   Clear
8:00 AM 71.6 °F 60.8 °F 69% 29.83 in - Calm Calm - N/A   Clear
9:00 AM 71.6 °F 60.8 °F 69% 29.83 in - SSW 5.8 mph - N/A   Clear
10:00 AM 71.6 °F 60.8 °F 69% 29.86 in - SW 6.9 mph - N/A   Clear
11:00 AM 65 °F 61 °F 82% 29.86 in 1 mi SSW 10.4 mph - - Fog Light Fog
12:00 PM 69.8 °F 62.6 °F 78% 29.86 in - South 6.9 mph - N/A   Clear
1:00 PM 77.0 °F 64.4 °F 65% 29.83 in - South 5.8 mph - N/A   Clear
2:00 PM 77.0 °F 62.6 °F 61% 29.83 in - SSW 9.2 mph - N/A   Clear
3:00 PM 69.8 °F 62.6 °F 78% 29.83 in 6.2 mi South 13.8 mph - N/A   Scattered Clouds
4:00 PM 68.0 °F 60.8 °F 78% 29.89 in 6.2 mi SW 12.7 mph - N/A   Mostly Cloudy
5:00 PM 65 °F 60 °F 79% 29.91 in 12 mi SW 10.4 mph - -   Mostly Cloudy
5:00 PM 66.2 °F 60.8 °F 83% 29.89 in 6.2 mi SW 10.4 mph - N/A   Mostly Cloudy
6:00 PM 66.2 °F 59.0 °F 78% 29.92 in 6.2 mi SW 10.4 mph - N/A   Mostly Cloudy
7:00 PM 64.4 °F 60.8 °F 88% 29.95 in 6.2 mi SW 6.9 mph - N/A   Scattered Clouds
8:00 PM 65 °F 58 °F 73% 29.96 in 12 mi SW 10.4 mph - -   Mostly Cloudy
8:00 PM 64.4 °F 59.0 °F 83% 29.95 in 6.2 mi SW 10.4 mph - N/A   Mostly Cloudy
9:00 PM 64.4 °F 59.0 °F 83% 29.95 in 6.2 mi WSW 5.8 mph - N/A   Overcast
10:00 PM 64.4 °F 59.0 °F 83% 29.98 in 6.2 mi SW 6.9 mph - N/A   Overcast
11:00 PM 62.6 °F 59.0 °F 88% 29.98 in 6.2 mi SW 8.1 mph - N/A   Overcast